Погода в Повороте

Россия / Республика Бурятия     50°55′23″N   106°37′16″E
темп.,
°C
ветер,
м/с
пор.,
м/с
влажн.,
%
обл.,
%
осадки,
мм/ч
давл.,
гПа
погр.,
м
18 мая, вт
вт1823:00+9ссв2267100 0.0 100826
02:00+9с3572100 0.0 1008161
05:00+7с3776100 0.0 1009514
08:00+8с5670100 0.0 1010806
11:00+11с455362 0.0 10091333
14:00+14зюз234172 0.0 10071951
17:00+15юз554325 0.0 10041631
20:00+13ююз3550100 0.0 1002115
19 мая, ср
ср1923:00+10ююв226051 0.0 100014
02:00+10ююв2260100 0.0 99624
05:00+9ссз3567100 0.0 997119
08:00+8ссз81274100 0.1 1003913
11:00+9ссз597090 0.0 10051056
14:00+12ссз555324 0.1 10051263
17:00+13всв1246100 0.0 10031005
20:00+12юв1250100 0.0 100026
20 мая, чт
чт2023:00+11всв2250100 0.0 99922
02:00+9св116098 0.0 99611
05:00+7с2267100 0.0 99717
08:00+10с4564100 0.0 999299
11:00+12с575895 2.2 1000939
14:00+16с674678 2.2 9991429
17:00+16ссв7843100 0.0 9971375
20:00+11с61158100 0.1 997582
21 мая, пт
пт2123:00+10с51064100 0.1 997500
02:00+8с5965100 0.1 995443
05:00+6ссз377380 0.0 995239
08:00+9с5666100 0.0 994691
11:00+8ссз5567100 0.0 997539
14:00+10с54596 0.0 998753
17:00+10с895898 0.2 999987
20:00+3ссз9147199 0.9 1006851
22 мая, сб
сб2223:00+3ссз6116477 0.0 1008753
02:00+2зсз116784 0.0 100918
05:00+2юз2265100 0.0 101036
08:00+4сз5970100 0.1 10111123
11:00+7сз111451100 0.2 10111800
14:00+9ссз111544100 0.2 10122053
17:00+9ссз101446100 0.0 10131958
20:00+6сз61173100 0.1 1015986